Location: Chircca
(13.7944°S, 72.0608°W)
Time: 05:51:54
(UTC+00:00)

Delta 168 - Pass Details

Date: 14 July 2020
Orbit: 394 x 2050 km, 25.3° (Epoch: 14 August)

Event Time Altitude Azimuth Distance (km) Brightness Sun altitude
Exits shadow 09:20:51 46° 183° (S) 1,153 4.2 -26.5°
Drops below altitude 10° 09:25:10 10° 127° (SE) 2,146 6.2 -25.5°
Sets 09:27:13 0° 120° (ESE) 2,884 7.1 -25.0°
